Regional Weather Roundup
Issued by NWS

Home | Current Version | Previous Version | Text Only | Print | Product List | Glossary On
Versions: 1 2 3 4 5 6 7 8 9 10 11 12 13 14 15 16 17 18 19 20 21 22 23 24 25 26 27 28 29 30 31 32 33 34 35 36 37 38 39 40 41 42 43 44 45 46 47 48 49 50
000
ASUS43 KMPX 201601
RWRMN
WEATHER ROUNDUP FOR MINNESOTA
NATIONAL WEATHER SERVICE TWIN CITIES/CHANHASSEN MN
1100 AM CDT FRI OCT 20 2017


NOTE: "FAIR" INDICATES FEW OR NO CLOUDS BELOW 12,000 FEET WITH NO
SIGNIFICANT WEATHER AND/OR OBSTRUCTIONS TO VISIBILITY. N/A MEANS
CURRENT SKY AND/OR WEATHER CONDITIONS ARE NOT AVAILABLE.

MNZ060>063-068>070-201700-
   Twin Cities Metro

CITY           SKY/WX    TMP DP  RH WIND       PRES   REMARKS
TWIN CITIES    SUNNY     68  52  56 S14G22    29.88F
ST PAUL        SUNNY     67  54  63 S9        29.89F
CRYSTAL        SUNNY     68  49  50 S14G22    29.85F
BLAINE         MOSUNNY   68  52  56 S13G18    29.86F
LAKEVILLE      SUNNY     66  52  59 S15G23    29.89F
EDEN PRAIRIE   SUNNY     69  52  54 S12       29.86F
SOUTH ST PAUL  SUNNY     68  51  54 S10G16    29.89F
LAKE ELMO      FAIR      66  52  59 S18       29.90F
$$
MNZ001>005-007-008-013>017-022>024-027-028-201700-
   Northwest Minnesota

CITY           SKY/WX    TMP DP  RH WIND       PRES   REMARKS
BEMIDJI        SUNNY     64  49  57 S15       29.67F
HALLOCK        CLOUDY    64  52  63 S22       29.51F
ROSEAU         SUNNY     64  52  63 S12       29.58F
WARROAD        SUNNY     64  52  63 SE9       29.60F
CROOKSTON      SUNNY     66  50  55 S18G26    29.55F
FOSSTON        SUNNY     68  46  45 S14       29.62F
DETROIT LAKES  SUNNY     64  48  55 S16       29.66F
MOORHEAD       SUNNY     64  48  55 S20G28    29.60F
PARK RAPIDS    SUNNY     63  50  62 S14       29.70F
MAHNOMEN       FAIR      67  49  53 S14G22    29.62F
$$
MNZ006-009>011-018-025>026-201700-
   North Central Minnesota

CITY           SKY/WX    TMP DP  RH WIND       PRES   REMARKS
BAUDETTE       SUNNY     64  49  57 S12       29.64F
FLAG ISLAND    SUNNY     54  46  76 S9        29.61F
INTL FALLS     SUNNY     65  46  50 SE9       29.69F
WASKISH        MOSUNNY   66  52  59 SE13      29.65F
BIG FORK       MOSUNNY   64  50  59 S7        29.72F
LONGVILLE      SUNNY     64  48  55 SE14      29.73F
GRAND RAPIDS   SUNNY     62  50  64 S15       29.77F
CRANE LAKE     SUNNY     63  46  55 S3        29.75F
ORR            SUNNY     64  45  48 S13G20    29.72F
COOK           SUNNY     64  48  55 S9        29.76F
WALKER         FAIR      64  48  57 S9        29.70F
$$
MNZ012-019>021-037-201700-
   Northeast Minnesota

CITY           SKY/WX    TMP DP  RH WIND       PRES   REMARKS
DULUTH         SUNNY     63  50  62 S15       29.83S
ELY            SUNNY     63  46  55 S7        29.79F
HIBBING        SUNNY     62  49  62 S12       29.78F
EVELETH        SUNNY     63  51  65 S9        29.80F
DULUTH HARBOR  SUNNY     57  52  82 N3        29.84S
TWO HARBORS    SUNNY     64  54  68 S10       29.82F
SILVER BAY     SUNNY     63  50  63 S14       29.83S
GRAND MARAIS     N/A     53  44  71 NE3       29.86S
G MARAIS ARPRT SUNNY     61  45  55 S8        29.87S
$$
MNZ029>031-032-039>041-046>048-054>057-064-201700-
   West Central Minnesota

CITY           SKY/WX    TMP DP  RH WIND       PRES   REMARKS
FERGUS FALLS   SUNNY     64  50  59 S21G28    29.66F
WHEATON        SUNNY     66  46  48 SE16G28   29.66F
MORRIS         SUNNY     64  52  63 S17G24    29.70F
ALEXANDRIA     SUNNY     63  49  60 S18       29.75F
ELBOW LAKE     FAIR      63  50  63 S17G28    29.69F
WADENA         SUNNY     64  50  59 S15       29.70F
GLENWOOD       SUNNY     63  50  63 S20G28    29.75F
APPLETON       SUNNY     66  48  52 S16G23    29.71F
BENSON         SUNNY     66  50  55 SW18      29.75F
ORTONVILLE     SUNNY     66  50  55 N15G21    29.68F
MADISON        SUNNY     68  52  56 S18G24    29.71F
WILLMAR        FAIR      66  52  59 S10G20    29.79F
$$
MNZ033>034-036-042>043-049>051-058-059-201700-
   Central Minnesota

CITY           SKY/WX    TMP DP  RH WIND       PRES   REMARKS
ST CLOUD       SUNNY     65  52  62 S14       29.81F
SAUK CENTRE    FAIR      63  50  62 S16G24    29.77F
PAYNESVILLE    SUNNY     64  51  63 S17G23    29.79F
AITKIN         SUNNY     61  48  63 S12G20    29.77F
PINE RIVER     SUNNY     61  48  63 SE9       29.78F
BRAINERD       SUNNY     63  49  60 S17       29.77F
STAPLES        SUNNY     63  48  59 S12G20    29.74S
LONG PRAIRIE   FAIR      63  50  63 SE15G23   29.76F
LITTLE FALLS   SUNNY     63  43  48 S13G20    29.79S
LITCHFIELD     SUNNY     66  54  63 S5        29.82F
BUFFALO        SUNNY     65  49  56 S13G18    29.85F
MAPLE LAKE     SUNNY     66  53  61 S10G17    29.84F
HUTCHINSON     CLOUDY    68  53  60 S12G18    29.83F
$$
MNZ037-044-045-052-053-201700-
   East Central Minnesota

CITY           SKY/WX    TMP DP  RH WIND       PRES   REMARKS
PRINCETON      SUNNY     68  52  56 S12       29.83F
MORA           SUNNY     63  50  63 S10G16    29.85F
CAMBRIDGE      SUNNY     70  52  52 S12G18    29.84F
RUSH CITY      SUNNY     65  51  58 S9G18     29.86S
MOOSE LAKE     SUNNY     64  50  59 S9G17     29.82S
HINCKLEY       FAIR      64  52  63 S12G18    29.85F
CLOQUET        SUNNY     63  48  59 S10G16    29.83S
MCGREGOR       SUNNY     63  50  63 S9        29.80S
$$
MNZ071>073-080-081-089-090-097-098-201700-
   Southwest Minnesota

CITY           SKY/WX    TMP DP  RH WIND       PRES   REMARKS
MONTEVIDEO     SUNNY     66  52  59 SW14G22   29.74F
GRANITE FALLS  SUNNY     68  53  58 S22       29.78F
CANBY          SUNNY     67  50  54 S22G29    29.73F
MARSHALL       SUNNY     67  52  58 S23G30    29.76F
REDWOOD FALLS  SUNNY     67  50  54 S21G31    29.79F
OLIVIA         SUNNY     68  52  56 S13G25    29.79F
PIPESTONE      SUNNY     63  50  63 S20G26    29.78F
WORTHINGTON    SUNNY     66  51  58 S18G29    29.83F
JACKSON        SUNNY     64  50  59 S20G28    29.87F
TRACY          SUNNY     66  53  61 S15G25    29.79F
SLAYTON        SUNNY     65  51  59 S24G35    29.81F
$$
MNZ065>067-074>077-082>085-091>093-201700-
   South Central Minnesota

CITY           SKY/WX    TMP DP  RH WIND       PRES   REMARKS
MANKATO        SUNNY     68  52  56 S17       29.88F
NEW ULM        SUNNY     64  52  63 S13G21    29.84F
ST JAMES       SUNNY     66  52  59 S22       29.86F
FAIRMONT       SUNNY     66  53  63 S24G30    29.88F
GLENCOE        SUNNY     67  52  57 S12G24    29.84F
FARIBAULT      SUNNY     68  52  56 S12G21    29.91F
OWATONNA       SUNNY     64  54  68 S15       29.92F
WASECA         SUNNY     68  50  52 S16       29.92F
$$
MNZ078>079-086>088-094>096-201700-
   Southeast Minnesota

CITY           SKY/WX    TMP DP  RH WIND       PRES   REMARKS
ROCHESTER      SUNNY     66  52  60 S21       29.98F
RED WING       SUNNY     70  48  46 S9        29.92F
STANTON        SUNNY     69  51  54 S15G21    29.90S
DODGE CENTER   SUNNY     64  50  59 S22       29.95F
WINONA         SUNNY     70  54  56 S3        29.98F
AUSTIN         SUNNY     63  52  67 S12G18    29.96F
PRESTON        SUNNY     65  51  62 S15       30.00F
$$
ABBREVIATIONS USED IN REMARKS
   TC - TEMPERATURES IN CELSIUS
  WCI - WIND CHILL INDEX
   HX - HEAT INDEX
  VSB - VISIBILITY
$$



USA.gov is the U.S. government's official web portal to all federal, state and local government web resources and services.